Regional Weather Roundup
Issued by NWS

Home | Current Version | Previous Version | Graphics & Text | Print | Product List | Glossary On
Versions: 1 2 3 4 5 6 7 8 9 10 11 12 13 14 15 16 17 18 19 20 21 22 23 24 25 26 27 28 29 30 31 32 33 34 35 36 37 38 39 40 41 42 43 44 45 46
000
ASUS45 KCYS 270410
RWRWY

WYOMING REGIONAL WEATHER ROUNDUP
NATIONAL WEATHER SERVICE CHEYENNE WY
900 PM MST FRI DEC 26 2014

NOTE:  "FAIR" INDICATES FEW OR NO CLOUDS BELOW 12,000 FEET
WITH NO SIGNIFICANT WEATHER AND/OR OBSTRUCTIONS TO VISIBILITY.

WYZ001-270500-
YELLOWSTONE NATIONAL PARK

CITY           SKY/WX    TMP DP  RH WIND       PRES   REMARKS
LK YELLOWSTONE   N/A      8   3  80 NW6       30.00R WCI  -2
W YELLOWSTONE  NOT AVBL

$$
WYZ002>013-054>058-071-098>099-270500-
NORTHERN WYOMING

CITY           SKY/WX    TMP DP  RH WIND       PRES   REMARKS
JACKSON        CLOUDY    12   9  85 W5        30.04R WCI   4
CODY           CLOUDY    14  14 100 CALM      30.07R
GREYBULL       CLOUDY     9   7  92 CALM      30.14S
WORLAND        CLOUDY     7   5  91 CALM      30.13R
SHERIDAN       CLOUDY    20  13  74 W14       30.10R WCI   7
BUFFALO        CLOUDY    18  13  80 N10       30.05R WCI   6
GILLETTE       FAIR       7   4  87 W8        30.06S WCI  -6
HULETT           N/A    N/A N/A N/A MISG        N/A
NEWCASTLE      CLOUDY    14  10  85 N6        30.08S WCI   5

$$
WYZ014>020-022>026-101>103-270500-
CENTRAL WYOMING

CITY           SKY/WX    TMP DP  RH WIND       PRES   REMARKS
BIG PINEY      LGT SNOW   7   3  84 CALM      30.02R FOG
PINEDALE       LGT SNOW   5   3  92 W3        30.02R
DUBOIS         NOT AVBL
LANDER         CLOUDY    12   8  84 E3        30.05S
RIVERTON       CLOUDY    12   7  80 W6        30.07R WCI   3
CASPER         FAIR       6   3  87 SW8       30.06R WCI  -7
DOUGLAS        FAIR       8   5  87 N7        30.07R WCI  -3

$$
WYZ021-027>030-104>119-270500-
SOUTHERN WYOMING

CITY           SKY/WX    TMP DP  RH WIND       PRES   REMARKS
EVANSTON       FAIR       6   2  83 SW9       30.04R WCI  -8
FORT BRIDGER   CLOUDY    13  10  88 W10       30.05R WCI   0
ROCK SPRINGS   FLURRIES  11   9  92 SE3       30.03R
DIXON          LGT SNOW   9   5  84 CALM      30.03R
RAWLINS        CLOUDY     6   2  83 N3        30.01R FOG
SARATOGA       MOCLDY     5   3  92 W8        29.99R WCI  -8
LARAMIE        LGT SNOW   6   2  83 CALM      29.95R FOG
CHEYENNE       CLOUDY    11   7  84 NW3       29.99R FOG
TORRINGTON     LGT SNOW  17  14  88 NW3       30.09R FOG
PINE BLUFFS    LGT SNOW  14  12  92 W3        30.05R

$$


USA.gov is the U.S. government's official web portal to all federal, state and local government web resources and services.